VK3AFQ-13 Weather Reports


Display with metric or nautical units.
time (UTC)temp
F
wind
direction
speed
MPH
gust
MPH
rain 1hr
in
rain 24hr
in
rain mn
in
humidity
%
barometer
mb
20260510034603 65 129 1.0 6.0 0.00 0.00 0.00 73 1028.5
20260510033103 65 129 3.0 6.0 0.00 0.00 0.00 74 1028.6
20260510031604 64 129 1.0 6.0 0.00 0.00 0.00 75 1028.8
20260510024604 63 129 3.0 7.0 0.00 0.00 0.00 77 1029.0
20260510023104 63 129 1.0 9.0 0.00 0.00 0.00 77 1029.1
20260510021604 63 129 4.0 6.0 0.00 0.00 0.00 78 1029.4
20260510014604 62 129 4.0 9.0 0.00 0.00 0.00 79 1029.8
20260510013104 62 129 2.0 10.0 0.00 0.00 0.00 79 1029.9
20260510011604 61 129 4.0 9.0 0.00 0.00 0.00 80 1030.1
20260510004603 59 129 2.0 8.0 0.00 0.00 0.00 84 1030.3
20260510003103 58 129 4.0 7.0 0.00 0.00 0.00 85 1030.3
20260510001603 58 129 2.0 8.0 0.00 0.00 0.00 86 1030.2
20260509234604 55 129 2.0 8.0 0.00 0.00 0.00 90 1030.1
20260509233104 54 129 3.0 8.0 0.00 0.00 0.00 91 1030.1
20260509231603 53 129 3.0 8.0 0.00 0.00 0.00 93 1030.2
20260509224604 51 129 3.0 5.0 0.00 0.00 0.00 96 1029.9
20260509223104 50 129 1.0 2.0 0.00 0.00 0.00 96 1030.0
20260509221604 49 0 0.0 2.0 0.00 0.00 0.00 96 1029.7
20260509214604 47 0 0.0 0.0 0.00 0.00 0.00 96 1029.4
20260509213104 46 0 0.0 1.0 0.00 0.00 0.00 96 1029.3
20260509211604 46 0 0.0 0.0 0.00 0.00 0.00 95 1029.2
20260509204604 47 0 0.0 0.0 0.00 0.00 0.00 95 1029.0
20260509203104 47 0 0.0 1.0 0.00 0.00 0.00 95 1028.9
20260509201603 47 0 0.0 0.0 0.00 0.00 0.00 95 1028.8
20260509194604 47 0 0.0 1.0 0.00 0.00 0.00 95 1028.4
20260509193104 48 0 0.0 1.0 0.00 0.00 0.00 95 1028.1
20260509191604 48 0 0.0 0.0 0.00 0.00 0.00 95 1028.0
20260509184604 47 0 0.0 1.0 0.00 0.00 0.00 95 1028.0
20260509183103 48 0 0.0 0.0 0.00 0.00 0.00 95 1027.8
20260509181603 48 0 0.0 0.0 0.00 0.00 0.00 95 1027.7
20260509174604 49 0 0.0 1.0 0.00 0.00 0.00 95 1027.4
20260509173103 49 0 0.0 1.0 0.00 0.00 0.00 94 1027.4
20260509171604 49 0 0.0 1.0 0.00 0.00 0.00 94 1027.4
20260509164603 49 0 0.0 1.0 0.00 0.00 0.00 94 1027.5
20260509163106 48 0 0.0 1.0 0.00 0.00 0.00 94 1027.5
20260509161603 48 0 0.0 0.0 0.00 0.00 0.00 94 1027.6
20260509154603 49 0 0.0 0.0 0.00 0.00 0.00 94 1027.6
20260509153103 49 0 0.0 1.0 0.00 0.00 0.00 94 1027.7
20260509151604 48 0 0.0 0.0 0.00 0.00 0.00 94 1027.7
20260509144603 48 0 0.0 1.0 0.00 0.00 0.00 93 1027.8
20260509143103 48 0 0.0 0.0 0.00 0.00 0.00 93 1027.6
20260509141603 48 0 0.0 0.0 0.00 0.00 0.00 92 1027.6
20260509134604 49 0 0.0 0.0 0.00 0.00 0.00 92 1027.6
20260509133104 49 0 0.0 0.0 0.00 0.00 0.00 91 1027.5
20260509131603 50 0 0.0 0.0 0.00 0.00 0.00 91 1027.5
20260509124604 51 0 0.0 0.0 0.00 0.00 0.00 90 1027.6
20260509123103 50 0 0.0 0.0 0.00 0.00 0.00 92 1027.8
20260509121604 50 0 0.0 0.0 0.00 0.00 0.00 91 1027.7
20260509114603 51 0 0.0 0.0 0.00 0.00 0.00 89 1027.8
20260509113104 51 0 0.0 0.0 0.00 0.00 0.00 88 1027.8
20260509111603 52 0 0.0 1.0 0.00 0.00 0.00 88 1027.7
20260509104603 52 0 0.0 0.0 0.00 0.00 0.00 88 1027.6
20260509103103 53 0 0.0 0.0 0.00 0.00 0.00 87 1027.4
20260509101603 53 0 0.0 0.0 0.00 0.00 0.00 87 1027.4
20260509094603 54 0 0.0 0.0 0.00 0.00 0.00 86 1027.3
20260509093104 54 0 0.0 0.0 0.00 0.00 0.00 85 1027.3
20260509091603 55 0 0.0 0.0 0.00 0.00 0.00 84 1027.3
20260509090101 55 0 0.0 0.0 0.00 0.00 0.00 82 1027.2
20260509084603 56 0 0.0 0.0 0.00 0.00 0.00 80 1027.2
20260509083104 58 0 0.0 0.0 0.00 0.00 0.00 78 1027.0
20260509081604 58 0 0.0 0.0 0.00 0.00 0.00 77 1026.8
20260509074603 60 0 0.0 0.0 0.00 0.00 0.00 73 1026.4
20260509073103 62 0 0.0 0.0 0.00 0.00 0.00 70 1026.4
20260509071603 63 0 0.0 0.0 0.00 0.00 0.00 68 1026.4
20260509064604 64 129 1.0 4.0 0.00 0.00 0.00 66 1026.5
20260509063104 64 129 1.0 4.0 0.00 0.00 0.00 65 1026.3
20260509061604 64 129 0.0 4.0 0.00 0.00 0.00 65 1026.2
20260509054603 64 129 2.0 5.0 0.00 0.00 0.00 65 1026.3
20260509053103 65 129 5.0 7.0 0.00 0.00 0.00 64 1026.4
20260509051603 64 129 0.0 4.0 0.00 0.00 0.00 64 1026.4
20260509044604 65 129 8.0 9.0 0.00 0.00 0.00 62 1026.3
20260509043104 64 129 2.0 5.0 0.00 0.00 0.00 63 1026.2
20260509041604 64 129 2.0 6.0 0.00 0.00 0.00 65 1026.2
20260509040101 64 129 1.0 8.0 0.00 0.00 0.00 67 1026.5